OCN5AE LGKR-EDDF

Flight info

Callsign OCN5AE
Flight time 2h 12m
Altitude 36000
Route OLGAT DCT CRAYE DCT GISAM DCT DARZA DCT SIMBA DCT AKINI T161 DEBHI DEBHI1B
Aircraft A320/M-SDE3FGHIRWY/LB1

Departure

Time 2026-05-04 14:41
Airport Corfu Ioannis Kapodistrias International Airport (LGKR)

Arrival

Time 2026-05-04 16:53
Airport Frankfurt Main Airport (EDDF)
Time Latitude Longitude Altitude Speed Heading
2026-05-04 14:10 39.60838 19.91318 10 ft 0 kts 78°
2026-05-04 14:31 39.60833 19.91284 10 ft 2 kts 78°
2026-05-04 14:32 39.60827 19.91246 10 ft 2 kts 78°
2026-05-04 14:32 39.60824 19.91227 10 ft 2 kts 78°
2026-05-04 14:32 39.60822 19.91215 10 ft 2 kts 78°
2026-05-04 14:32 39.60815 19.91199 10 ft 2 kts 40°
2026-05-04 14:33 39.60802 19.91189 9 ft 2 kts 10°
2026-05-04 14:33 39.60793 19.91189 9 ft 0 kts 351°
2026-05-04 14:33 39.60786 19.91191 9 ft 0 kts 348°
2026-05-04 14:35 39.60790 19.91190 9 ft 2 kts 349°
2026-05-04 14:35 39.60831 19.91180 10 ft 9 kts 351°
2026-05-04 14:35 39.60908 19.91161 10 ft 11 kts 348°
2026-05-04 14:36 39.60988 19.91139 10 ft 12 kts 348°
2026-05-04 14:36 39.61077 19.91117 10 ft 13 kts 349°
2026-05-04 14:36 39.61150 19.91098 10 ft 2 kts 347°
2026-05-04 14:36 39.61151 19.91098 10 ft 0 kts 347°
2026-05-04 14:38 39.61156 19.91096 10 ft 2 kts 347°
2026-05-04 14:38 39.61179 19.91088 11 ft 3 kts 341°
2026-05-04 14:38 39.61198 19.91073 11 ft 2 kts 320°
2026-05-04 14:39 39.61210 19.91055 12 ft 2 kts 304°
2026-05-04 14:39 39.61220 19.91031 12 ft 3 kts 298°
2026-05-04 14:39 39.61231 19.91004 12 ft 3 kts 298°
2026-05-04 14:40 39.61196 19.90957 11 ft 7 kts 169°
2026-05-04 14:40 39.61042 19.90997 10 ft 55 kts 168°
2026-05-04 14:40 39.60404 19.91160 7 ft 129 kts 168°
2026-05-04 14:40 39.59353 19.91441 251 ft 166 kts 169°
2026-05-04 14:41 39.58248 19.91791 1009 ft 168 kts 156°
2026-05-04 14:41 39.57465 19.92852 1760 ft 171 kts 108°
2026-05-04 14:41 39.58143 19.95703 2706 ft 191 kts 33°
2026-05-04 14:42 39.60706 19.95268 3651 ft 219 kts 310°
2026-05-04 14:42 39.61211 19.93390 4287 ft 232 kts 270°
2026-05-04 14:42 39.60953 19.91371 5231 ft 230 kts 257°
2026-05-04 14:43 39.60460 19.89391 5956 ft 239 kts 253°
2026-05-04 14:43 39.59888 19.87300 6487 ft 256 kts 253°
2026-05-04 14:43 39.59304 19.85085 7198 ft 265 kts 255°
2026-05-04 14:43 39.58732 19.82820 8069 ft 269 kts 256°
2026-05-04 14:44 39.58170 19.80525 8955 ft 271 kts 256°
2026-05-04 14:44 39.57612 19.78204 9839 ft 274 kts 257°
2026-05-04 14:44 39.57051 19.75860 10744 ft 276 kts 257°
2026-05-04 14:44 39.56597 19.73462 11511 ft 278 kts 272°
2026-05-04 14:45 39.56995 19.71047 11945 ft 281 kts 304°
2026-05-04 14:45 39.58342 19.69213 12434 ft 289 kts 326°
2026-05-04 14:45 39.60005 19.67700 13123 ft 297 kts 328°
2026-05-04 14:45 39.61688 19.66152 13916 ft 300 kts 327°
2026-05-04 14:46 39.63361 19.64547 14666 ft 303 kts 326°
2026-05-04 14:46 39.65033 19.62894 15444 ft 305 kts 324°
2026-05-04 14:46 39.66706 19.61201 16194 ft 308 kts 324°
2026-05-04 14:46 39.68383 19.59480 16954 ft 310 kts 324°
2026-05-04 14:47 39.70069 19.57735 17661 ft 313 kts 323°
2026-05-04 14:47 39.71765 19.55968 18344 ft 315 kts 323°
2026-05-04 14:47 39.73470 19.54185 19023 ft 317 kts 323°
2026-05-04 14:47 39.75188 19.52384 19645 ft 321 kts 323°
2026-05-04 14:48 39.76925 19.50558 20241 ft 324 kts 323°
2026-05-04 14:48 39.78678 19.48713 20861 ft 327 kts 323°
2026-05-04 14:48 39.80443 19.46854 21464 ft 329 kts 323°
2026-05-04 14:48 39.82222 19.44981 22043 ft 332 kts 323°
2026-05-04 14:49 39.84015 19.43087 22603 ft 335 kts 323°
2026-05-04 14:49 39.85830 19.41173 22942 ft 338 kts 323°
2026-05-04 14:49 39.87651 19.39245 23197 ft 339 kts 323°
2026-05-04 14:49 39.89481 19.37310 23455 ft 341 kts 323°
2026-05-04 14:50 39.91329 19.35354 23929 ft 345 kts 323°
2026-05-04 14:50 39.93168 19.33404 24546 ft 345 kts 322°
2026-05-04 14:50 39.95024 19.31438 25115 ft 346 kts 322°
2026-05-04 14:50 39.96886 19.29461 25652 ft 347 kts 322°
2026-05-04 14:51 39.98758 19.27475 26150 ft 349 kts 322°
2026-05-04 14:51 40.00640 19.25476 26628 ft 351 kts 322°
2026-05-04 14:51 40.02537 19.23459 27023 ft 355 kts 322°
2026-05-04 14:51 40.04465 19.21409 27352 ft 361 kts 322°
2026-05-04 14:52 40.06409 19.19338 27782 ft 363 kts 322°
2026-05-04 14:52 40.08363 19.17256 28214 ft 365 kts 322°
2026-05-04 14:52 40.10329 19.15157 28635 ft 366 kts 322°
2026-05-04 14:52 40.12302 19.13050 29051 ft 368 kts 322°
2026-05-04 14:53 40.14285 19.10932 29445 ft 371 kts 322°
2026-05-04 14:53 40.16278 19.08798 29851 ft 372 kts 322°
2026-05-04 14:53 40.18282 19.06655 30240 ft 374 kts 322°
2026-05-04 14:53 40.20296 19.04500 30615 ft 376 kts 322°
2026-05-04 14:54 40.22363 19.02405 30980 ft 378 kts 324°
2026-05-04 14:54 40.24520 19.00440 31338 ft 380 kts 327°
2026-05-04 14:54 40.26760 18.98612 31690 ft 381 kts 329°
2026-05-04 14:54 40.29080 18.96927 32024 ft 383 kts 331°
2026-05-04 14:55 40.31442 18.95305 32340 ft 385 kts 332°
2026-05-04 14:55 40.33822 18.93682 32629 ft 388 kts 332°
2026-05-04 14:55 40.36215 18.92052 32922 ft 390 kts 332°
2026-05-04 14:55 40.38621 18.90415 33210 ft 391 kts 331°
2026-05-04 14:56 40.41027 18.88774 33576 ft 390 kts 332°
2026-05-04 14:56 40.43427 18.87139 33987 ft 389 kts 331°
2026-05-04 14:56 40.45815 18.85511 34394 ft 387 kts 331°
2026-05-04 14:56 40.48195 18.83884 34666 ft 387 kts 331°
2026-05-04 14:57 40.50586 18.82249 34848 ft 390 kts 331°
2026-05-04 14:57 40.52991 18.80603 35029 ft 392 kts 331°
2026-05-04 14:57 40.55408 18.78950 35218 ft 393 kts 331°
2026-05-04 14:57 40.57831 18.77289 35423 ft 394 kts 332°
2026-05-04 14:58 40.60259 18.75625 35625 ft 395 kts 332°
2026-05-04 14:58 40.62695 18.73953 35791 ft 397 kts 332°
2026-05-04 14:58 40.65140 18.72274 35951 ft 398 kts 332°
2026-05-04 14:58 40.66785 18.71144 36051 ft 399 kts 332°
2026-05-04 14:59 40.72520 18.67201 36076 ft 401 kts 332°
2026-05-04 15:00 40.79930 18.62093 36085 ft 401 kts 332°
2026-05-04 15:00 40.84866 18.58685 36083 ft 401 kts 332°
2026-05-04 15:01 40.92260 18.53565 36083 ft 401 kts 331°
2026-05-04 15:01 40.97186 18.50147 36076 ft 401 kts 332°
2026-05-04 15:02 41.02117 18.46720 36080 ft 402 kts 331°
2026-05-04 15:02 41.07054 18.43283 36081 ft 402 kts 331°
2026-05-04 15:03 41.12005 18.39831 36095 ft 402 kts 331°
2026-05-04 15:03 41.16952 18.36375 36097 ft 403 kts 331°
2026-05-04 15:04 41.21906 18.32906 36102 ft 403 kts 330°
2026-05-04 15:04 41.26868 18.29428 36100 ft 403 kts 330°
2026-05-04 15:05 41.31820 18.25949 36101 ft 403 kts 330°
2026-05-04 15:05 41.36770 18.22467 36101 ft 403 kts 330°
2026-05-04 15:06 41.41684 18.19003 36099 ft 403 kts 330°
2026-05-04 15:07 41.49105 18.13730 36096 ft 403 kts 329°
2026-05-04 15:07 41.53845 18.09779 36084 ft 402 kts 326°
2026-05-04 15:08 41.58501 18.05660 36079 ft 403 kts 326°
2026-05-04 15:08 41.63157 18.01528 36079 ft 403 kts 325°
2026-05-04 15:09 41.67828 17.97371 36079 ft 403 kts 326°
2026-05-04 15:09 41.72468 17.93237 36078 ft 404 kts 325°
2026-05-04 15:10 41.79469 17.86984 36078 ft 404 kts 326°
2026-05-04 15:11 41.86482 17.80704 36078 ft 405 kts 326°
2026-05-04 15:11 41.91181 17.76545 36078 ft 405 kts 327°
2026-05-04 15:12 41.96092 17.72834 36079 ft 406 kts 330°
2026-05-04 15:12 42.01069 17.69250 36079 ft 407 kts 330°
2026-05-04 15:13 42.06049 17.65658 36080 ft 407 kts 330°
2026-05-04 15:13 42.11010 17.62071 36078 ft 407 kts 330°
2026-05-04 15:14 42.16002 17.58455 36074 ft 407 kts 330°
2026-05-04 15:14 42.20985 17.54840 36075 ft 409 kts 330°
2026-05-04 15:15 42.25997 17.51198 36077 ft 409 kts 330°
2026-05-04 15:15 42.30970 17.47577 36077 ft 410 kts 330°
2026-05-04 15:16 42.38502 17.42078 36075 ft 410 kts 330°
2026-05-04 15:17 42.46002 17.36589 36074 ft 410 kts 330°
2026-05-04 15:17 42.53536 17.31059 36074 ft 411 kts 330°
2026-05-04 15:18 42.58534 17.27381 36074 ft 412 kts 330°
2026-05-04 15:19 42.66076 17.21820 36076 ft 412 kts 330°
2026-05-04 15:19 42.73621 17.16243 36075 ft 412 kts 330°
2026-05-04 15:20 42.78630 17.12531 36075 ft 413 kts 330°
2026-05-04 15:20 42.83678 17.08782 36077 ft 413 kts 330°
2026-05-04 15:21 42.88725 17.05029 36082 ft 414 kts 330°
2026-05-04 15:22 42.96293 16.99384 36075 ft 414 kts 330°
2026-05-04 15:22 43.03861 16.93724 36079 ft 415 kts 330°
2026-05-04 15:23 43.08905 16.89943 36075 ft 416 kts 330°
2026-05-04 15:23 43.13992 16.86123 36069 ft 417 kts 330°
2026-05-04 15:24 43.24117 16.78499 36066 ft 418 kts 330°
2026-05-04 15:25 43.29208 16.74653 36065 ft 418 kts 330°
2026-05-04 15:26 43.36806 16.68900 36068 ft 418 kts 330°
2026-05-04 15:26 43.44452 16.63095 36072 ft 419 kts 330°
2026-05-04 15:27 43.52077 16.57289 36075 ft 420 kts 330°
2026-05-04 15:28 43.59734 16.51440 36077 ft 420 kts 330°
2026-05-04 15:29 43.67403 16.45567 36087 ft 421 kts 330°
2026-05-04 15:30 43.85324 16.31770 36089 ft 422 kts 329°
2026-05-04 15:31 43.93010 16.25824 36080 ft 423 kts 329°
2026-05-04 15:32 44.05831 16.15870 36077 ft 424 kts 329°
2026-05-04 15:34 44.18637 16.05871 36079 ft 424 kts 329°
2026-05-04 15:34 44.26342 15.99833 36080 ft 426 kts 329°
2026-05-04 15:35 44.34071 15.93757 36074 ft 426 kts 329°
2026-05-04 15:36 44.41800 15.87662 36077 ft 426 kts 329°
2026-05-04 15:36 44.46950 15.83590 36074 ft 427 kts 329°
2026-05-04 15:37 44.52104 15.79508 36071 ft 427 kts 329°
2026-05-04 15:37 44.57258 15.75417 36066 ft 427 kts 329°
2026-05-04 15:38 44.62421 15.71311 36073 ft 428 kts 329°
2026-05-04 15:38 44.67592 15.67189 36067 ft 428 kts 329°
2026-05-04 15:39 44.72756 15.63063 36068 ft 428 kts 329°
2026-05-04 15:40 44.80510 15.56855 36071 ft 428 kts 329°
2026-05-04 15:40 44.85661 15.52718 36065 ft 430 kts 329°
2026-05-04 15:41 44.90847 15.48546 36071 ft 430 kts 329°
2026-05-04 15:41 44.96039 15.44359 36068 ft 431 kts 329°
2026-05-04 15:42 45.01229 15.40168 36061 ft 430 kts 329°
2026-05-04 15:42 45.06377 15.35999 36058 ft 430 kts 329°
2026-05-04 15:43 45.11573 15.31781 36062 ft 431 kts 328°
2026-05-04 15:43 45.16793 15.27537 36058 ft 432 kts 328°
2026-05-04 15:44 45.21962 15.23326 36054 ft 432 kts 328°
2026-05-04 15:44 45.27176 15.19067 36054 ft 432 kts 328°
2026-05-04 15:45 45.32376 15.14812 36059 ft 432 kts 328°
2026-05-04 15:45 45.37580 15.10543 36054 ft 433 kts 328°
2026-05-04 15:46 45.42740 15.06300 36053 ft 433 kts 328°
2026-05-04 15:46 45.47943 15.02016 36056 ft 433 kts 328°
2026-05-04 15:47 45.53303 14.98091 36055 ft 435 kts 332°
2026-05-04 15:47 45.58740 14.94351 36049 ft 435 kts 332°
2026-05-04 15:48 45.64179 14.90601 36048 ft 435 kts 332°
2026-05-04 15:48 45.72344 14.84947 36045 ft 435 kts 332°
2026-05-04 15:49 45.77779 14.81173 36042 ft 435 kts 332°
2026-05-04 15:49 45.83182 14.77411 36044 ft 435 kts 332°
2026-05-04 15:50 45.88623 14.73611 36040 ft 436 kts 332°
2026-05-04 15:50 45.94072 14.69802 36036 ft 437 kts 332°
2026-05-04 15:51 45.99527 14.65979 36036 ft 437 kts 332°
2026-05-04 15:51 46.04956 14.62164 36036 ft 438 kts 332°
2026-05-04 15:52 46.10448 14.58296 36037 ft 438 kts 332°
2026-05-04 15:52 46.15883 14.54461 36031 ft 438 kts 332°
2026-05-04 15:53 46.21349 14.50596 36028 ft 438 kts 332°
2026-05-04 15:53 46.26790 14.46738 36025 ft 439 kts 332°
2026-05-04 15:54 46.32256 14.42856 36041 ft 439 kts 332°
2026-05-04 15:54 46.37732 14.38957 36058 ft 439 kts 332°
2026-05-04 15:55 46.43200 14.35055 36065 ft 439 kts 332°
2026-05-04 15:55 46.48651 14.31156 36068 ft 439 kts 331°
2026-05-04 15:56 46.54116 14.27238 36074 ft 440 kts 331°
2026-05-04 15:56 46.59595 14.23303 36063 ft 440 kts 331°
2026-05-04 15:57 46.65076 14.19358 36049 ft 441 kts 331°
2026-05-04 15:57 46.70561 14.15399 36042 ft 441 kts 331°
2026-05-04 15:58 46.76038 14.11435 36043 ft 440 kts 331°
2026-05-04 15:58 46.81477 14.07494 36052 ft 440 kts 331°
2026-05-04 15:59 46.86949 14.03517 36068 ft 440 kts 331°
2026-05-04 15:59 46.92426 13.99529 36080 ft 441 kts 331°
2026-05-04 16:00 46.97911 13.95525 36089 ft 441 kts 331°
2026-05-04 16:00 47.03379 13.91524 36085 ft 442 kts 331°
2026-05-04 16:01 47.08848 13.87513 36086 ft 442 kts 331°
2026-05-04 16:01 47.14346 13.83472 36088 ft 442 kts 331°
2026-05-04 16:02 47.19801 13.79451 36082 ft 441 kts 331°
2026-05-04 16:03 47.28010 13.73386 36066 ft 442 kts 331°
2026-05-04 16:03 47.33516 13.69306 36064 ft 442 kts 331°
2026-05-04 16:04 47.39003 13.65232 36057 ft 443 kts 331°
2026-05-04 16:04 47.47233 13.59099 36052 ft 443 kts 331°
2026-05-04 16:05 47.52715 13.55001 36052 ft 443 kts 331°
2026-05-04 16:06 47.60952 13.48827 36023 ft 443 kts 331°
2026-05-04 16:07 47.71916 13.40576 35981 ft 443 kts 331°
2026-05-04 16:08 47.82916 13.32259 35946 ft 444 kts 330°
2026-05-04 16:09 47.96624 13.21837 35905 ft 444 kts 330°
2026-05-04 16:10 48.07566 13.13472 35889 ft 444 kts 330°
2026-05-04 16:11 48.18455 13.04763 35882 ft 443 kts 324°
2026-05-04 16:12 48.31988 12.86443 35889 ft 438 kts 309°
2026-05-04 16:13 48.40020 12.72733 35892 ft 437 kts 309°
2026-05-04 16:14 48.48025 12.59042 35907 ft 438 kts 308°
2026-05-04 16:16 48.58045 12.41806 35910 ft 438 kts 308°
2026-05-04 16:17 48.68005 12.24558 35913 ft 438 kts 308°
2026-05-04 16:18 48.73170 12.13351 35905 ft 433 kts 294°
2026-05-04 16:18 48.74424 12.09243 35901 ft 431 kts 289°
2026-05-04 16:19 48.76724 11.96248 35898 ft 427 kts 277°
2026-05-04 16:19 48.77674 11.87380 35903 ft 427 kts 277°
2026-05-04 16:20 48.80019 11.65256 35916 ft 426 kts 277°
2026-05-04 16:22 48.82310 11.43154 35918 ft 427 kts 277°
2026-05-04 16:23 48.88112 11.17794 35931 ft 438 kts 303°
2026-05-04 16:24 48.96811 11.04724 35932 ft 443 kts 314°
2026-05-04 16:25 49.01347 10.98407 35608 ft 440 kts 314°
2026-05-04 16:26 49.10467 10.85556 31769 ft 454 kts 314°
2026-05-04 16:26 49.17273 10.75928 29797 ft 437 kts 314°
2026-05-04 16:27 49.21558 10.69582 28434 ft 428 kts 311°
2026-05-04 16:28 49.27661 10.59950 26377 ft 416 kts 311°
2026-05-04 16:28 49.33598 10.50555 24518 ft 403 kts 311°
2026-05-04 16:29 49.40192 10.37656 23799 ft 380 kts 302°
2026-05-04 16:30 49.44735 10.27663 23878 ft 380 kts 301°
2026-05-04 16:31 49.47758 10.21008 23883 ft 381 kts 301°
2026-05-04 16:31 49.52293 10.11145 22380 ft 375 kts 307°
2026-05-04 16:32 49.58705 10.04474 20986 ft 373 kts 331°
2026-05-04 16:33 49.63317 10.01067 20111 ft 367 kts 331°
2026-05-04 16:33 49.67928 9.97603 19946 ft 369 kts 331°
2026-05-04 16:34 49.72513 9.94043 19943 ft 368 kts 328°
2026-05-04 16:34 49.74729 9.92118 19939 ft 368 kts 327°
2026-05-04 16:35 49.81371 9.86233 19935 ft 368 kts 327°
2026-05-04 16:35 49.88032 9.80330 19934 ft 368 kts 327°
2026-05-04 16:36 49.90272 9.78383 19935 ft 369 kts 329°
2026-05-04 16:36 49.94817 9.74671 19931 ft 370 kts 329°
2026-05-04 16:37 49.99290 9.70999 19372 ft 364 kts 329°
2026-05-04 16:37 50.01512 9.69157 18829 ft 358 kts 329°
2026-05-04 16:37 50.05833 9.65549 17146 ft 352 kts 329°
2026-05-04 16:38 50.10068 9.61983 15381 ft 344 kts 329°
2026-05-04 16:39 50.16181 9.56677 12705 ft 330 kts 326°
2026-05-04 16:39 50.20006 9.52757 11318 ft 324 kts 324°
2026-05-04 16:40 50.23646 9.48968 10069 ft 305 kts 324°
2026-05-04 16:40 50.27051 9.45416 8786 ft 290 kts 324°
2026-05-04 16:41 50.30335 9.41944 7958 ft 285 kts 324°
2026-05-04 16:41 50.35261 9.36671 7947 ft 287 kts 324°
2026-05-04 16:42 50.40104 9.31229 7951 ft 284 kts 309°
2026-05-04 16:43 50.41112 9.25604 7957 ft 275 kts 256°
2026-05-04 16:43 50.39055 9.20702 7961 ft 271 kts 225°
2026-05-04 16:43 50.37725 9.18592 7956 ft 271 kts 224°
2026-05-04 16:44 50.32085 9.10916 7641 ft 266 kts 206°
2026-05-04 16:45 50.28722 9.08476 6796 ft 268 kts 204°
2026-05-04 16:46 50.23645 9.04932 5651 ft 265 kts 204°
2026-05-04 16:46 50.20640 9.01716 4889 ft 263 kts 223°
2026-05-04 16:47 50.17986 8.97824 4153 ft 261 kts 224°
2026-05-04 16:47 50.15346 8.93953 3972 ft 262 kts 224°
2026-05-04 16:48 50.11450 8.88052 3963 ft 252 kts 231°
2026-05-04 16:48 50.10500 8.85847 3867 ft 240 kts 243°
2026-05-04 16:49 50.09344 8.81070 3286 ft 232 kts 252°
2026-05-04 16:49 50.08312 8.76512 2691 ft 210 kts 251°
2026-05-04 16:50 50.07339 8.72516 2253 ft 184 kts 251°
2026-05-04 16:50 50.06497 8.69042 1774 ft 162 kts 252°
2026-05-04 16:51 50.05760 8.65982 1333 ft 139 kts 252°
2026-05-04 16:51 50.05434 8.64623 1156 ft 133 kts 252°
2026-05-04 16:51 50.04791 8.61939 835 ft 132 kts 252°
2026-05-04 16:52 50.04157 8.59294 491 ft 130 kts 251°
2026-05-04 16:52 50.03844 8.57966 367 ft 127 kts 249°
2026-05-04 16:53 50.03463 8.56379 343 ft 39 kts 249°
2026-05-04 16:53 50.03465 8.55814 340 ft 12 kts 281°
2026-05-04 16:54 50.03477 8.55698 340 ft 9 kts 278°
2026-05-04 16:55 50.03411 8.55131 338 ft 20 kts 250°
2026-05-04 16:55 50.03302 8.54676 336 ft 22 kts 251°
2026-05-04 16:56 50.03345 8.54462 333 ft 10 kts 340°
2026-05-04 16:56 50.03554 8.54340 338 ft 8 kts 342°
2026-05-04 16:57 50.03592 8.54320 339 ft 0 kts 340°
2026-05-04 16:57 50.03593 8.54319 339 ft 1 kts 340°
2026-05-04 16:58 50.03714 8.54545 341 ft 17 kts 70°
2026-05-04 16:58 50.03758 8.54731 343 ft 18 kts 70°
2026-05-04 16:59 50.03838 8.55070 348 ft 14 kts 70°
2026-05-04 17:00 50.03985 8.55683 352 ft 16 kts 70°
2026-05-04 17:00 50.04158 8.55935 356 ft 10 kts 339°
2026-05-04 17:01 50.04242 8.55955 359 ft 7 kts 65°
2026-05-04 17:01 50.04295 8.56171 362 ft 13 kts 70°
2026-05-04 17:02 50.04374 8.56504 367 ft 11 kts 70°
2026-05-04 17:02 50.04433 8.56750 369 ft 13 kts 69°
2026-05-04 17:03 50.04464 8.56882 372 ft 12 kts 80°
2026-05-04 17:03 50.04415 8.56949 371 ft 9 kts 164°
2026-05-04 17:03 50.04380 8.56969 370 ft 0 kts 160°